This is the latest recevied weather packets stored in our database for station/object KE5VBO-1. If no packets are shown the sender has not sent any weather packets the latest 10 day(s).
| Time | Temp. | Humidity | Pressure | Rain* | Wind** | Luminosity | Snow |
|---|---|---|---|---|---|---|---|
| 1777681819 | 16.11° C | 8% | 1015.1 hPa | 0 mm | - | - | - |
| 1777680951 | 16.67° C | 15% | 1014.8 hPa | 0 mm | - | - | - |
| 1777680018 | 16.67° C | 17% | 1014.7 hPa | 0 mm | - | - | - |
| 1777679155 | 16.67° C | 18% | 1014.6 hPa | 0 mm | - | - | - |
| 1777678220 | 17.22° C | 34% | 1014.3 hPa | 0 mm | - | - | - |
| 1777677359 | 17.22° C | 35% | 1014.3 hPa | 0 mm | - | - | - |
| 1777676417 | 17.78° C | 32% | 1014.2 hPa | 0 mm | - | - | - |
| 1777675545 | 17.78° C | 51% | 1013.9 hPa | 0 mm | - | - | - |
| 1777674612 | 17.78° C | 56% | 1014 hPa | 0 mm | - | - | - |
| 1777673752 | 17.78° C | 51% | 1014 hPa | 0 mm | - | - | - |
| 1777672829 | 18.33° C | 54% | 1013.8 hPa | 0 mm | - | - | - |
| 1777671963 | 18.33° C | 57% | 1013.7 hPa | 0 mm | - | - | - |
| 1777671023 | 18.33° C | 57% | 1013.9 hPa | 0 mm | - | - | - |
| 1777670140 | 18.33° C | 56% | 1014.2 hPa | 0 mm | - | - | - |
| 1777669210 | 18.33° C | 56% | 1014.4 hPa | 0 mm | - | - | - |
| 1777668367 | 18.33° C | 56% | 1014.8 hPa | 0 mm | - | - | - |
| 1777667465 | 18.33° C | 57% | 1015.1 hPa | 0 mm | - | - | - |
| 1777666530 | 17.78° C | 57% | 1015 hPa | 0 mm | - | - | - |
| 1777665666 | 17.78° C | 57% | 1014.9 hPa | 0 mm | - | - | - |
| 1777664730 | 17.78° C | 57% | 1014.7 hPa | 0 mm | - | - | - |
| 1777663866 | 17.78° C | 57% | 1014.4 hPa | 0 mm | - | - | - |
| 1777662929 | 18.33° C | 57% | 1014.8 hPa | 0 mm | - | - | - |
| 1777662068 | 18.89° C | 57% | 1014.6 hPa | 0 mm | - | - | - |
| 1777661129 | 18.33° C | 57% | 1014.9 hPa | 0 mm | - | - | - |
| 1777660273 | 18.33° C | 57% | 1015 hPa | 0 mm | - | - | - |
* Rain latest hour (hover to see other rain measurements)
** Current wind speed in m/s (hover to see current wind gust speed)